Temp
15 17 16 18 17 18 18 18 18 17 17 17 18 17 17 17 17 16 15 15 15 15 15 15 15 15 14 14 14 13 12 12 13 14 13 13 13 13 13 13 13 12 12
17 15 15 16 17 17 17 17 17 17 17 17 17 17 17 16 16 16 15 15 15 15 15 15 14 14 14 13 13 12 12 12 12 12 14 13 13 13 13 13 13 12 12
20 15 15 16 16 17 17 17 17 17 17 17 17 17 16 16 16 15 15 15 15 15 15 14 14 14 13 13 13 12 12 11 11 11 12 10 10 10 11 12 13 13 13
15 17 15 15 16 16 16 16 16 16 17 17 17 17 16 16 16 15 15 15 15 14 14 14 14 14 13 13 12 12 12 12 11 12 12 12 10 9 10 10 10 10 10
15 14 15 16 15 15 16 16 16 16 17 17 16 16 16 15 15 15 15 15 14 14 14 14 14 13 13 13 13 12 12 12 12 13 13 12 10 9 9 10 10 9 9
15 14 15 15 15 15 15 15 16 16 16 16 16 15 15 15 15 15 15 14 14 14 13 13 13 13 13 13 13 13 12 13 13 13 12 12 11 10 10 11 11 10 10
15 17 14 15 14 14 15 14 15 16 16 16 15 15 15 15 15 15 14 14 14 13 13 13 13 13 13 13 13 12 12 12 12 12 12 12 11 11 11 11 10 10 10
15 16 15 14 14 14 14 13 14 15 16 15 15 15 15 14 14 14 14 14 13 13 13 13 13 13 13 13 13 11 11 12 12 12 12 11 11 9 10 10 10 10 10
14 13 13 13 13 14 14 14 13 15 15 15 14 14 14 14 14 14 14 13 13 13 13 13 12 13 13 12 12 12 11 12 12 11 11 10 8 7 7 9 9 9 9
12 12 12 12 12 11 11 12 13 14 15 14 14 14 13 14 14 13 13 13 13 13 12 12 12 12 12 12 12 12 11 11 11 11 11 11 8 7 6 6 6 7 7
12 13 13 12 10 10 10 12 13 13 14 13 13 13 13 13 13 13 13 13 12 12 12 12 12 11 11 11 11 11 11 11 11 11 11 10 8 7 6 7 7 7 5
11 11 11 13 12 11 12 11 12 13 12 12 13 13 13 13 13 13 13 13 12 12 12 12 11 11 11 11 12 11 11 11 11 11 10 10 7 7 7 7 6 6 6
11 11 11 11 10 11 10 10 10 11 12 12 13 13 13 13 13 13 13 13 12 12 12 11 11 11 11 11 12 11 11 11 10 10 10 9 8 7 7 7 6 5 6
11 11 10 11 11 11 10 10 10 11 12 11 12 13 13 13 13 13 12 12 12 12 11 11 11 11 11 12 12 11 11 10 10 10 9 9 10 9 8 7 6 5 5
11 11 10 10 10 9 9 10 10 10 10 11 12 12 13 13 12 12 13 12 12 12 11 11 11 11 12 12 12 11 11 11 10 10 10 10 9 8 7 7 6 5 5
10 10 10 9 9 9 9 9 10 9 10 11 11 12 13 13 12 13 12 12 12 11 11 11 11 11 11 11 12 12 11 10 11 10 10 8 8 8 7 7 6 5 5
9 9 9 9 9 8 9 10 9 10 12 11 12 12 12 12 12 11 12 12 11 11 11 11 10 10 10 11 11 11 10 10 9 9 9 8 7 7 7 7 6 6 5
9 9 8 8 8 8 9 8 9 10 11 11 11 12 12 11 11 11 12 11 11 11 11 11 11 11 10 11 11 11 10 10 9 8 8 8 8 7 6 6 6 5 5
9 9 9 8 8 8 9 9 10 10 10 10 12 11 12 12 12 12 12 11 11 11 11 11 11 11 10 10 10 10 10 10 9 9 8 7 7 6 6 6 5 5 4
9 9 9 8 8 8 8 9 10 9 10 10 11 11 12 12 12 12 12 11 11 11 11 11 10 10 10 10 10 10 10 9 9 8 8 8 6 6 6 6 5 5 4
8 9 9 9 8 8 9 9 9 10 10 10 11 11 12 12 12 12 12 11 11 11 11 11 10 10 10 10 10 9 9 9 9 8 8 7 7 7 6 5 5 4 4
9 9 9 9 9 10 10 10 10 10 11 11 12 12 12 12 12 12 12 11 11 11 11 10 10 10 10 10 10 9 9 9 8 8 8 7 6 6 5 6 5 4 3
10 10 10 10 10 11 10 11 11 11 11 11 12 12 12 12 12 12 11 11 11 11 11 10 10 10 10 10 9 9 8 8 7 7 7 7 6 6 5 5 5 4 4
13 13 12 11 11 11 11 11 11 11 11 12 12 12 12 12 12 12 12 12 12 11 10 10 10 10 9 8 8 8 8 8 7 6 6 6 6 6 6 6 5 4 3
13 13 12 12 12 12 12 12 12 12 12 13 13 12 13 12 12 12 12 12 11 10 10 10 9 9 8 8 7 7 7 6 6 5 6 6 6 5 5 5 5 4 3
13 13 13 12 12 12 12 12 12 12 12 12 13 13 13 13 12 12 12 11 11 10 10 10 10 9 9 9 7 6 6 6 5 4 4 4 5 5 5 5 4 4 3
Height
1497 1507 1508 1497 1514 1505 1511 1513 1519 1523 1528 1531 1532 1534 1536 1539 1542 1544 1547 1550 1553 1555 1556 1558 1561 1561 1563 1563 1564 1565 1566 1566 1568 1567 1567 1566 1567 1567 1567 1567 1568 1567 1567
1501 1500 1506 1508 1512 1510 1512 1515 1521 1525 1528 1530 1534 1536 1539 1541 1543 1546 1549 1553 1555 1558 1559 1561 1563 1564 1566 1566 1567 1567 1567 1567 1568 1571 1570 1569 1568 1569 1569 1569 1569 1569 1568
1489 1485 1509 1511 1517 1513 1513 1519 1522 1526 1530 1532 1535 1538 1540 1544 1547 1549 1552 1555 1557 1561 1562 1564 1565 1566 1568 1569 1569 1569 1571 1571 1570 1572 1573 1572 1571 1570 1571 1570 1570 1571 1570
1496 1495 1500 1512 1517 1516 1516 1520 1521 1527 1531 1535 1537 1540 1543 1547 1549 1552 1555 1558 1561 1562 1564 1567 1568 1569 1571 1573 1573 1572 1572 1572 1573 1574 1574 1573 1573 1573 1572 1573 1572 1573 1573
1502 1505 1510 1507 1520 1518 1516 1519 1522 1528 1530 1533 1541 1544 1546 1549 1552 1555 1558 1561 1563 1566 1567 1568 1571 1572 1574 1576 1576 1575 1575 1575 1577 1577 1576 1574 1574 1575 1575 1575 1575 1576 1575
1509 1511 1509 1509 1517 1521 1517 1520 1525 1527 1531 1535 1539 1546 1551 1554 1555 1557 1560 1564 1564 1570 1570 1570 1574 1574 1576 1578 1578 1575 1579 1579 1579 1579 1577 1576 1576 1576 1576 1577 1577 1577 1576
1502 1507 1503 1506 1516 1518 1519 1526 1530 1529 1532 1537 1541 1546 1552 1558 1559 1561 1563 1565 1568 1572 1571 1573 1575 1577 1578 1580 1581 1579 1579 1580 1581 1580 1579 1578 1579 1578 1578 1578 1579 1578 1579
1501 1502 1502 1490 1507 1515 1519 1521 1532 1535 1533 1536 1543 1549 1554 1560 1563 1564 1566 1568 1572 1573 1574 1575 1578 1578 1581 1582 1583 1582 1581 1581 1581 1581 1581 1581 1580 1581 1580 1579 1580 1580 1581
1500 1503 1505 1486 1500 1512 1521 1519 1532 1539 1538 1538 1543 1551 1557 1561 1567 1568 1570 1571 1573 1577 1576 1577 1580 1581 1582 1584 1584 1585 1580 1581 1582 1583 1581 1581 1582 1582 1582 1581 1582 1581 1582
1501 1505 1508 1496 1498 1513 1520 1527 1537 1541 1540 1541 1545 1552 1557 1561 1568 1571 1573 1575 1575 1578 1579 1580 1582 1583 1584 1585 1585 1585 1583 1584 1584 1585 1584 1583 1582 1583 1584 1584 1583 1582 1582
1500 1501 1502 1501 1510 1520 1525 1533 1541 1543 1543 1547 1551 1554 1558 1562 1569 1574 1575 1577 1579 1580 1581 1582 1584 1585 1586 1587 1587 1587 1587 1587 1587 1586 1586 1584 1583 1582 1582 1584 1583 1583 1584
1504 1503 1507 1503 1509 1518 1520 1531 1542 1542 1545 1549 1551 1555 1559 1563 1571 1575 1576 1578 1580 1582 1582 1584 1585 1586 1586 1586 1588 1587 1587 1588 1587 1587 1587 1585 1585 1584 1584 1584 1583 1584 1584
1503 1505 1507 1507 1510 1512 1519 1527 1536 1544 1549 1550 1553 1557 1562 1565 1570 1575 1576 1579 1581 1582 1582 1584 1585 1586 1586 1587 1587 1589 1587 1588 1588 1588 1586 1585 1584 1584 1584 1585 1585 1585 1584
1503 1505 1506 1507 1510 1517 1523 1529 1538 1543 1547 1552 1554 1561 1563 1566 1570 1574 1577 1579 1581 1583 1582 1584 1585 1586 1587 1588 1587 1589 1588 1589 1588 1588 1588 1586 1584 1585 1584 1585 1585 1584 1585
1500 1503 1504 1506 1510 1517 1523 1531 1536 1540 1549 1552 1556 1560 1564 1566 1571 1573 1576 1579 1581 1582 1583 1583 1585 1587 1587 1588 1587 1589 1589 1587 1587 1587 1588 1588 1587 1587 1586 1586 1585 1585 1585
1500 1501 1501 1506 1512 1518 1523 1529 1533 1543 1548 1547 1560 1563 1565 1567 1571 1574 1576 1579 1580 1582 1582 1583 1586 1586 1586 1587 1587 1588 1589 1588 1587 1587 1587 1587 1586 1586 1587 1586 1586 1587 1584
1498 1500 1504 1508 1512 1516 1525 1531 1536 1545 1547 1553 1558 1563 1565 1568 1571 1573 1575 1577 1579 1580 1582 1584 1585 1585 1585 1586 1586 1588 1587 1587 1587 1587 1587 1586 1585 1585 1587 1585 1584 1586 1584
1500 1503 1507 1510 1514 1520 1525 1530 1538 1542 1546 1553 1556 1559 1563 1567 1570 1573 1574 1575 1577 1580 1581 1583 1584 1585 1585 1586 1584 1585 1585 1585 1586 1584 1584 1583 1584 1583 1584 1584 1582 1582 1583
1502 1503 1505 1510 1515 1520 1526 1532 1537 1541 1547 1552 1555 1558 1563 1565 1567 1569 1572 1573 1575 1577 1579 1581 1582 1583 1583 1584 1584 1584 1583 1585 1586 1585 1580 1579 1580 1580 1580 1581 1580 1578 1579
1502 1504 1507 1512 1518 1523 1528 1534 1538 1541 1545 1549 1554 1556 1560 1562 1563 1566 1569 1570 1572 1575 1576 1578 1579 1581 1581 1582 1583 1582 1582 1583 1583 1583 1581 1579 1575 1577 1576 1577 1577 1576 1576
1505 1507 1511 1514 1518 1525 1528 1532 1534 1537 1542 1548 1551 1553 1554 1558 1561 1563 1566 1567 1568 1570 1572 1574 1576 1578 1578 1578 1580 1580 1580 1580 1579 1578 1578 1577 1576 1573 1572 1573 1572 1571 1571
1504 1507 1510 1514 1518 1520 1525 1530 1535 1537 1540 1545 1547 1549 1551 1554 1556 1558 1562 1563 1565 1567 1568 1569 1571 1572 1574 1574 1575 1577 1577 1576 1576 1575 1575 1574 1572 1572 1571 1570 1569 1568 1567
1502 1504 1507 1510 1515 1518 1523 1528 1532 1535 1538 1540 1542 1545 1546 1549 1552 1554 1556 1558 1560 1561 1562 1564 1565 1566 1567 1569 1571 1573 1572 1570 1570 1572 1571 1571 1570 1568 1567 1567 1565 1564 1563
1498 1501 1504 1507 1510 1514 1518 1521 1523 1525 1529 1532 1537 1541 1543 1546 1548 1549 1549 1552 1553 1554 1557 1559 1559 1561 1562 1565 1567 1566 1568 1567 1566 1566 1566 1566 1566 1565 1565 1564 1562 1560 1559
1495 1497 1500 1503 1505 1507 1511 1514 1516 1518 1523 1527 1532 1535 1538 1540 1542 1543 1544 1546 1547 1547 1547 1549 1554 1554 1555 1558 1559 1562 1563 1562 1562 1562 1559 1562 1563 1560 1559 1559 1558 1556 1555
1488 1492 1493 1495 1499 1503 1507 1509 1512 1515 1518 1522 1525 1526 1529 1533 1535 1535 1538 1540 1541 1541 1542 1544 1545 1547 1547 1547 1549 1550 1552 1554 1556 1557 1556 1556 1555 1554 1553 1553 1552 1551 1550
Wind_Speed
20 30 32 41 35 36 34 31 28 25 22 20 23 25 27 28 29 29 28 28 30 29 28 27 26 27 27 29 30 32 31 30 24 20 20 19 19 20 20 19 19 21 22
21 21 29 33 33 34 32 30 27 24 22 23 24 27 29 30 31 30 30 30 29 28 29 28 29 30 32 33 32 30 29 28 25 21 17 20 20 20 20 19 18 17 17
9 7 22 29 29 30 30 29 26 24 22 25 27 29 31 32 31 30 32 30 30 29 29 29 29 30 30 29 27 23 19 18 18 17 16 22 21 20 20 18 18 17 16
12 13 25 27 30 31 31 29 27 24 24 26 29 31 32 32 31 31 31 30 29 29 28 27 28 29 29 28 27 29 23 17 14 13 14 17 20 21 20 20 20 19 20
18 27 30 32 28 29 31 29 26 25 27 29 30 32 32 32 32 32 31 29 28 27 27 26 27 29 29 27 24 21 16 15 9 7 11 17 20 20 19 17 17 18 19
11 15 26 30 32 30 29 27 27 28 29 32 34 33 31 31 31 31 30 28 27 25 25 26 25 26 26 24 23 15 15 11 11 14 13 16 17 17 16 14 14 13 14
20 19 14 26 33 32 29 25 24 28 31 34 35 33 32 30 30 30 29 28 25 23 23 24 24 23 23 23 25 18 13 10 8 12 14 15 16 15 15 14 14 14 13
25 32 15 46 38 34 29 29 23 28 33 36 34 32 32 30 29 29 28 26 23 22 22 22 21 21 20 20 22 22 13 8 8 13 14 14 14 15 14 15 14 14 13
24 20 26 41 38 32 31 30 25 29 35 36 34 33 31 29 26 27 26 24 22 20 20 20 18 17 19 20 20 19 10 4 6 9 12 12 14 15 15 14 13 13 13
14 16 18 29 38 31 31 31 33 32 34 34 34 32 30 28 26 25 24 21 20 18 17 17 17 17 19 21 20 17 10 5 5 6 8 9 12 14 13 14 13 12 12
21 25 19 16 28 30 30 29 29 30 31 31 31 31 28 28 26 23 20 17 16 15 15 15 18 18 16 14 15 14 7 6 2 6 8 8 10 11 10 9 10 10 10
24 29 29 31 28 27 31 28 27 30 31 31 31 30 29 28 24 20 17 15 13 13 14 17 14 11 11 9 10 13 4 1 3 5 6 5 7 6 7 6 7 8 8
31 29 28 29 32 36 42 41 38 28 30 30 30 30 27 23 20 18 16 14 12 11 12 11 9 7 7 5 3 11 5 1 2 5 6 5 5 5 4 4 6 5 7
32 32 31 29 29 31 33 39 38 36 35 32 31 27 25 21 18 17 15 13 11 11 11 8 6 4 3 4 6 12 7 4 0 4 8 8 4 2 1 1 3 2 4
37 36 32 31 31 38 39 41 42 39 34 31 28 23 20 15 15 14 12 10 11 11 9 6 2 5 5 5 8 11 10 8 1 3 4 5 4 4 5 3 3 2 2
25 29 37 36 40 41 41 42 44 42 33 34 25 27 20 12 11 11 11 9 12 9 6 5 6 5 5 3 3 5 7 7 4 6 7 6 3 6 9 7 6 6 7
25 29 33 36 38 41 43 40 40 37 35 34 30 23 20 14 13 12 10 8 9 7 11 9 8 6 6 6 5 5 4 2 1 6 8 6 5 4 7 11 12 13 13
19 23 31 36 39 39 34 39 40 43 32 36 32 22 17 17 15 16 16 17 15 13 14 13 14 11 11 9 8 8 6 5 4 8 8 8 9 8 8 9 10 10 13
20 23 27 29 30 37 38 39 38 37 37 35 36 18 16 18 19 20 17 17 15 16 18 19 17 17 13 11 11 10 10 10 8 9 9 10 11 11 12 13 12 12 12
20 21 25 32 34 37 38 36 33 38 35 30 25 24 20 19 20 23 19 18 19 21 21 21 16 15 15 13 14 13 12 13 12 13 11 12 14 16 16 15 16 15 15
25 27 32 35 36 36 37 35 36 36 30 30 30 23 22 23 22 22 22 22 23 21 21 21 21 21 21 18 15 15 15 16 18 17 16 17 15 15 17 17 16 17 16
30 31 33 35 38 34 31 34 36 33 32 30 28 27 28 27 25 26 24 27 24 24 22 23 24 25 24 22 20 20 15 15 21 21 18 20 18 17 20 19 17 21 19
36 37 38 41 38 36 35 34 33 29 28 28 29 30 29 28 24 29 27 28 26 24 23 26 26 26 23 22 20 17 9 6 7 12 16 21 21 21 23 23 19 20 21
33 34 38 40 40 38 35 32 33 32 34 31 29 31 29 28 28 32 29 29 30 26 22 26 27 27 23 17 19 20 21 14 7 5 7 13 24 24 25 23 23 22 22
33 35 35 38 38 36 33 33 33 37 33 26 27 29 30 31 31 31 27 29 30 29 26 27 25 28 26 23 26 24 22 17 10 14 17 16 19 26 27 26 23 23 25
34 34 34 36 37 36 35 35 37 36 35 36 34 34 31 34 32 32 32 32 28 30 31 29 29 28 31 31 31 31 28 24 19 17 23 24 28 21 20 24 25 26 26
Wind_Direction
155 168 169 160 167 154 153 145 143 139 130 123 124 124 124 124 122 120 117 113 112 110 108 107 104 101 99 94 89 83 77 71 69 76 87 87 83 80 81 82 84 85 80
162 178 170 164 164 155 149 144 144 138 130 129 128 126 125 123 121 120 114 115 113 110 107 104 102 99 98 93 89 85 78 68 68 59 79 82 80 78 79 81 83 84 83
169 72 179 168 166 156 149 148 144 138 131 133 131 129 127 124 121 120 117 117 113 109 104 102 101 102 103 98 92 89 85 76 77 64 65 76 70 75 72 72 76 79 82
216 167 179 175 172 161 154 153 145 139 136 135 134 132 130 126 124 122 118 116 112 107 105 100 100 105 107 102 97 92 98 104 104 67 63 84 82 74 74 74 71 71 73
151 167 177 173 178 167 157 153 147 143 141 139 137 135 132 130 127 123 120 116 110 107 104 101 103 108 112 111 110 110 114 107 78 38 62 77 80 77 78 79 79 77 76
176 184 182 172 180 170 159 154 151 146 144 142 139 136 133 132 128 124 121 117 112 109 105 103 106 113 114 104 85 115 126 92 57 57 71 77 76 76 73 72 73 74 74
203 209 193 184 180 167 158 154 151 147 147 143 141 139 137 136 131 126 122 117 114 113 108 108 107 111 119 109 92 107 110 70 53 60 60 74 76 76 78 75 73 72 69
186 200 246 193 175 164 160 151 153 152 149 144 142 140 139 139 134 128 124 119 114 112 110 110 110 106 118 125 110 93 105 87 58 63 56 79 79 78 77 75 73 71 69
202 188 191 189 164 171 175 151 162 159 152 146 141 141 141 138 136 130 124 120 114 112 110 109 106 98 107 126 123 106 101 77 32 33 37 71 82 86 84 82 79 74 69
177 160 140 163 148 148 144 153 159 158 150 143 141 141 141 138 136 133 128 122 115 111 108 109 101 92 110 121 127 113 89 79 30 21 12 64 82 92 91 89 77 70 66
153 168 155 142 130 138 131 146 152 150 143 140 140 140 140 139 139 136 130 123 117 113 108 106 101 87 93 108 112 113 84 91 33 4 3 55 83 103 92 80 64 63 72
170 167 167 169 159 150 145 143 150 149 148 146 144 143 142 136 137 135 135 134 129 125 113 112 112 109 113 95 84 128 121 54 349 2 13 65 99 94 81 68 64 80 65
174 171 166 165 165 168 156 161 157 153 147 145 145 143 137 137 139 153 152 157 155 140 130 127 126 121 103 93 71 136 148 171 354 349 25 51 105 113 83 25 95 90 60
179 179 174 171 166 166 166 157 157 154 151 144 139 148 149 150 156 167 163 162 166 156 150 157 142 125 203 229 132 153 171 201 230 20 20 1 341 296 218 318 325 26 41
170 173 176 170 171 160 158 165 165 161 148 147 148 150 157 154 162 167 176 181 178 171 169 176 178 221 185 146 126 151 169 220 282 349 337 331 317 231 216 223 267 263 311
172 166 170 175 169 164 166 164 160 152 153 151 163 163 163 171 183 193 187 172 185 189 193 210 225 175 145 134 164 163 139 179 273 294 303 316 342 222 218 218 233 256 284
183 178 175 173 175 170 171 171 165 179 184 172 162 163 171 184 193 198 215 200 212 200 221 199 204 187 211 239 195 205 186 172 286 287 269 289 304 291 238 243 251 261 273
174 180 177 169 168 166 173 171 181 188 201 180 175 173 193 199 191 210 209 218 219 210 209 209 210 218 231 240 240 234 249 295 307 298 259 264 263 268 258 252 258 264 279
169 168 175 183 179 187 176 177 191 200 188 195 185 192 219 220 227 237 231 202 204 215 214 219 227 234 226 231 247 262 266 278 303 300 281 263 262 241 249 263 266 273 275
166 159 159 167 168 177 182 180 176 182 187 178 207 218 224 224 237 239 224 203 220 219 224 235 225 218 229 241 246 258 264 272 282 276 284 276 266 260 266 266 271 278 282
167 164 164 165 169 173 175 181 173 172 183 202 206 218 217 232 235 228 219 210 222 234 239 229 222 221 230 230 224 235 248 267 271 266 272 264 247 267 271 277 286 284 281
169 171 168 171 173 170 176 175 178 186 195 209 208 213 223 227 229 226 221 219 223 232 242 229 231 229 228 237 235 240 249 252 249 258 268 261 252 253 253 270 284 289 287
174 173 174 170 178 179 181 182 190 199 212 223 218 224 226 232 233 230 218 225 227 233 240 224 230 233 241 245 240 234 229 232 211 238 255 250 248 255 256 262 276 281 279
184 179 179 181 182 188 191 195 197 198 211 220 222 221 228 236 237 229 220 227 232 229 231 225 233 239 238 228 234 243 249 247 265 261 271 258 248 254 261 268 277 271 263
197 197 191 190 196 199 201 203 206 210 216 220 225 226 230 235 234 237 236 229 227 232 229 221 231 226 226 237 246 238 239 230 274 277 296 273 259 256 259 261 264 257 260
206 207 206 203 204 205 206 209 211 217 222 221 226 227 231 232 230 235 235 236 233 235 234 230 235 242 254 274 250 228 222 233 260 288 276 265 266 270 269 262 264 256 250